Denver, CO

6:10 AM MDT on June 26, 2017 (GMT -0600)
Denver International

Weather History for KDEN - February, 2012

Change the Weather History Date:

Wednesday, February 15, 2012

  Actual Average Record
Temperature  
Mean Temperature 23 °F 32 °F  
Max Temperature 31 °F 46 °F 67 °F (2017)
Min Temperature 15 °F 19 °F -20 °F (1881)
Degree Days  
Heating Degree Days 42 33  
Month to date heating degree days 614 505  
Since 1 July heating degree days 3939 4036  
Cooling Degree Days 0 0  
Month to date cooling degree days 0 0  
Year to date cooling degree days 0 0  
Moisture  
Dew Point 20 °F    
Average Humidity 82    
Maximum Humidity 92    
Minimum Humidity 72    
Precipitation  
Precipitation 0.00 in 0.02 in 0.49 in (1889)
Month to date precipitation 0.83 0.19  
Year to date precipitation 1.09 0.60  
Snow  
Snow 0.00 in - - ()
Month to date snowfall 18  
Since 1 July snowfall 52.4  
Snow Depth 5.00 in    
Sea Level Pressure  
Sea Level Pressure 30.02 in    
Wind  
Wind Speed 6 mph (SE)    
Max Wind Speed 15 mph    
Max Gust Speed 17 mph    
Visibility 9 miles    
Events      
T = Trace of Precipitation, MM = Missing Value Source: NWS Daily Summary

Daily Weather History Graph

Daily Weather History Graph

Search for Another Location

Airport or City:

Trip Planner

Search our weather history database for the weather conditions in past years. The results will help you decide how hot, cold, wet, or windy it might be!

Date:

Astronomy

Feb. 15, 2012 Rise Set
Actual Time 6:51 AM MST 5:34 PM MST
Civil Twilight 6:24 AM MST 6:02 PM MST
Nautical Twilight 5:52 AM MST 6:33 PM MST
Astronomical Twilight 5:21 AM MST 7:05 PM MST
Moon 1:47 AM MST (2/15) 11:32 AM MST (2/15)
Length of Visible Light 11h 37m
Length of Day
10h 42m
Last Quarter, 38% of the Moon is Illuminated
Feb 15
Last Quarter
Feb 21
New
Feb 29
First Quarter
Mar 8
Full
Mar 14
Last Quarter

Hourly Weather History & Observations

Time (MST) Temp. Windchill Dew Point Humidity Pressure Visibility Wind Dir Wind Speed Gust Speed Precip Events Conditions
12:53 AM 28.0 °F 22.8 °F 21.9 °F 78% 29.81 in 8.0 mi SW 4.6 mph - N/A   Scattered Clouds
1:53 AM 24.1 °F 18.2 °F 21.0 °F 88% 29.83 in 7.0 mi South 4.6 mph - N/A   Scattered Clouds
2:53 AM 24.1 °F 15.2 °F 19.0 °F 81% 29.84 in 7.0 mi SW 8.1 mph - N/A   Scattered Clouds
3:53 AM 24.1 °F 16.0 °F 18.0 °F 77% 29.86 in 7.0 mi SSW 6.9 mph - N/A   Scattered Clouds
4:53 AM 21.0 °F 12.4 °F 17.1 °F 85% 29.91 in 7.0 mi NE 6.9 mph - N/A   Scattered Clouds
5:53 AM 19.9 °F 12.1 °F 17.1 °F 89% 29.94 in 7.0 mi ENE 5.8 mph - N/A   Scattered Clouds
6:53 AM 19.9 °F 12.1 °F 17.1 °F 89% 29.98 in 4.0 mi NE 5.8 mph - N/A   Scattered Clouds
7:46 AM 19.4 °F 6.6 °F 17.6 °F 93% 29.91 in 4.0 mi ENE 12.7 mph - N/A   Overcast
7:53 AM 21.9 °F 11.0 °F 19.0 °F 89% 30.00 in 6.0 mi ENE 10.4 mph - N/A   Overcast
8:53 AM 24.1 °F 18.2 °F 21.0 °F 88% 30.03 in 10.0 mi East 4.6 mph - N/A   Overcast
9:53 AM 25.0 °F 20.7 °F 21.0 °F 85% 30.04 in 10.0 mi SE 3.5 mph - N/A   Overcast
10:53 AM 27.0 °F 18.0 °F 21.9 °F 81% 30.04 in 10.0 mi South 9.2 mph - N/A   Overcast
11:53 AM 28.4 °F 20.4 °F 21.2 °F 74% 29.99 in 10.0 mi SSE 8.1 mph - N/A   Mostly Cloudy
12:53 PM 28.0 °F 20.8 °F 21.9 °F 78% 30.03 in 10.0 mi South 6.9 mph - N/A   Overcast
1:18 PM 28.4 °F 21.2 °F 21.2 °F 74% 29.97 in 10.0 mi SSE 6.9 mph - N/A   Mostly Cloudy
1:53 PM 28.9 °F 21.9 °F 21.9 °F 75% 30.02 in 10.0 mi SE 6.9 mph - N/A   Mostly Cloudy
2:53 PM 28.9 °F 21.9 °F 21.0 °F 72% 30.03 in 10.0 mi SSE 6.9 mph - N/A   Scattered Clouds
3:53 PM 28.0 °F 18.6 °F 21.0 °F 75% 30.04 in 10.0 mi SE 10.4 mph - N/A   Scattered Clouds
4:53 PM 27.0 °F 18.7 °F 21.0 °F 78% 30.07 in 10.0 mi SE 8.1 mph - N/A   Scattered Clouds
5:53 PM 26.1 °F 20.5 °F 21.0 °F 81% 30.11 in 10.0 mi SE 4.6 mph - N/A   Overcast
6:53 PM 27.0 °F - 21.9 °F 81% 30.14 in 10.0 mi Calm Calm - N/A   Overcast
7:53 PM 27.0 °F - 21.9 °F 81% 30.15 in 10.0 mi Calm Calm - N/A   Overcast
8:53 PM 26.1 °F 21.9 °F 21.9 °F 84% 30.17 in 10.0 mi East 3.5 mph - N/A   Overcast
9:53 PM 24.1 °F 17.0 °F 19.9 °F 84% 30.18 in 10.0 mi ENE 5.8 mph - N/A   Mostly Cloudy
10:53 PM 23.0 °F - 18.0 °F 81% 30.18 in 10.0 mi Calm Calm - N/A   Scattered Clouds
11:53 PM 23.0 °F 18.4 °F 18.0 °F 81% 30.17 in 9.0 mi ESE 3.5 mph - N/A   Scattered Clouds